Location: Axtheid
(49.6213°N, 11.8205°E)
Time: 23:29:52
(UTC+00:00)

Envisat - Pass Details

Date: 22 January 2022
Orbit: 764 x 765 km, 98.2° (Epoch: 22 May)

Event Time Altitude Azimuth Distance (km) Brightness Sun altitude
Rises 16:24:15 0° 207° (SSW) 3,219 7.1 -5.6°
Reaches altitude 10° 16:27:10 10° 224° (SW) 2,298 6.8 -6.0°
Maximum altitude 16:30:47 20° 270° (W) 1,736 5.9 -6.5°
Drops below altitude 10° 16:34:26 10° 317° (NW) 2,310 5.8 -7.1°
Sets 16:37:24 0° 334° (NNW) 3,242 6.3 -7.5°
